Flag for Russia Weather past 2 weeks in Astrakhan, Russia

34 °F

Passing clouds.

Feels Like: 29 °F
Forecast: 35 / 44 °F
Wind: 6 mph from Southeast

Location: Astrakhan

Current Time: Dec 1, 2015 at 7:11:52 AM

Latest Report: Dec 1, 2015 at 6:30 AM

Visibility: 4 mi

Pressure: 30.04 "Hg

Humidity: 93%

Dew point: 32 °F

Location of AstrakhanLocation

Historic Weather in Astrakhan — Graph


Astrakhan temperature yesterday

Maximum temperature yesterday: 43 °F (at 1:00 PM)
Minimum temperature yesterday: 30 °F (at 11:00 PM)
Average temperature yesterday: 36 °F

Past Weeks' High & Low Weather Summary

High57 °F (Nov 26, 1:30 PM)100% (Nov 25, 1:30 AM)30.33 "Hg (Nov 25, 1:30 AM)
Low25 °F (Nov 28, 6:00 AM)49% (Nov 29, 12:00 PM)29.80 "Hg (Nov 17, 5:30 AM)
Average41 °F82%30.10 "Hg
* Reported Nov 16 5:00 AM — Dec 1 5:30 AM, Astrakhan, Weather by CustomWeather, © 2015

Note: Actual official high and low records may vary slightly from our data, if they occured in-between our weather recording intervals... More about our weather records


Astrakhan weather history for previous 24 hours

Time TempWeatherWind HumidityBarometerVisibility
5:30 AM
Tue, Dec 1
32 °FChilly.8 mph93%30.04 "Hg1 mi
5:00 AM32 °FChilly.6 mph93%30.04 "Hg1 mi
4:00 AM32 °FChilly.8 mph93%30.04 "Hg1 mi
3:30 AM32 °FIce fog.8 mph93%30.04 "Hg1 mi
3:00 AM32 °FIce fog.6 mph93%30.07 "Hg1 mi
2:30 AM32 °FPassing clouds.8 mph93%30.07 "Hg4 mi
2:00 AM30 °FClear.6 mph93%30.07 "Hg10 mi
1:30 AM32 °FClear.8 mph93%30.07 "Hg10 mi
1:00 AM30 °FClear.No wind93%30.07 "Hg10 mi
12:30 AM30 °FClear.1 mph93%30.07 "Hg10 mi
12:00 AM30 °FClear.1 mph93%30.07 "Hg10 mi
11:30 PM
Mon, Nov 30
30 °FClear.No wind93%30.09 "Hg10 mi
11:00 PM30 °FClear.1 mph93%30.07 "Hg10 mi
10:30 PM32 °FClear.6 mph93%30.07 "Hg10 mi
10:00 PM32 °FClear.6 mph87%30.07 "Hg10 mi
9:30 PM32 °FClear.8 mph87%30.09 "Hg10 mi
9:00 PM32 °FClear.3 mph87%30.09 "Hg10 mi
8:30 PM32 °FClear.3 mph87%30.09 "Hg10 mi
8:00 PM32 °FClear.6 mph93%30.09 "Hg10 mi
7:30 PM34 °FClear.6 mph87%30.09 "Hg10 mi
7:00 PM34 °FClear.6 mph87%30.09 "Hg10 mi
6:30 PM36 °FClear.6 mph87%30.09 "Hg10 mi
6:00 PM39 °FClear.8 mph75%30.09 "Hg10 mi
5:30 PM41 °FClear.3 mph76%30.09 "Hg10 mi
5:00 PM41 °FSunny.3 mph70%30.09 "Hg10 mi
4:30 PM41 °FSunny.6 mph76%30.09 "Hg10 mi
4:00 PM41 °FSunny.6 mph76%30.09 "Hg10 mi
3:30 PM43 °FSunny.6 mph71%30.07 "Hg10 mi
3:00 PM43 °FSunny.6 mph71%30.07 "Hg10 mi
2:30 PM43 °FSunny.8 mph71%30.07 "Hg10 mi
2:00 PM43 °FSunny.6 mph71%30.07 "Hg10 mi
1:30 PM43 °FPassing clouds.3 mph71%30.07 "HgN/A
1:00 PM43 °FPassing clouds.3 mph71%30.07 "HgN/A
12:30 PM41 °FSunny.6 mph76%30.09 "Hg10 mi
12:00 PM41 °FSunny.6 mph76%30.09 "Hg10 mi
11:30 AM41 °FSunny.6 mph76%30.09 "Hg10 mi
11:00 AM39 °FSunny.6 mph81%30.12 "Hg10 mi
10:30 AM39 °FSunny.6 mph81%30.12 "Hg10 mi
10:00 AM37 °FSunny.8 mph87%30.12 "Hg10 mi
9:30 AM37 °FSunny.6 mph87%30.12 "Hg10 mi
9:00 AM36 °FSunny.8 mph87%30.12 "Hg10 mi
8:30 AM36 °FSunny.8 mph87%30.12 "Hg10 mi
8:00 AM34 °FClear.6 mph93%30.12 "Hg10 mi
7:30 AM34 °FClear.8 mph87%30.12 "Hg10 mi
Weather by CustomWeather, © 2015

See weather overviewHow to use our weather pages